World > North America > United States > Virginia

Hourly Fentress, VA Regional Weather

Feedback E-mail the Weather

Quick WX

Fentress, VA Weather Maps

°F °C°F °C
Fentress Weather Map
UTC Time: 7/2/2022, 11:19
Your Time:

Fentress, VA Regional Weather

Expires:202207021200;;547547
ASUS41 KAKQ 021115
RWRAKQ

REGIONAL WEATHER ROUNDUP
NATIONAL WEATHER SERVICE WAKEFIELD VA
700 AM EDT SAT JUL 02 2022

Note: "fair" indicates few or no clouds below 12,000 feet with no
significant weather and/or obstructions to visibility. * = Denotes
station may not report precipitation (e.g., rain,snow,etc.),
thunder or fog.


VAZ088>098-021200-
SOUTHEAST VIRGINIA
  
CITY           SKY/WX    TMP DP  RH WIND       PRES   REMARKS
NORFOLK        MOSUNNY   74  72  93 SW13      30.04S                  
VIRGINIA BEACH PTSUNNY   75  72  90 SW10      30.05R                  
NORFOLK NAVAL  PTSUNNY   73  71  93 SW8       30.06R                  
WEST POINT*    PTSUNNY   73  70  91 SW8       30.04R                  
SALUDA*        FAIR      73  70  89 SW7       30.02S                  
NEWPORT NEWS   MOSUNNY   73  71  93 SW12      30.04S                  
LANGLEY AFB    MOSUNNY   75  74  99 SW10      30.04R                  
FORT EUSTIS    MOSUNNY   74  71  88 SW6       30.03R                  
WILLIAMSBURG*  MOSUNNY   75  73  94 SW5       30.05R                  
HR EXEC AP*    FAIR      72  72 100 S5        30.06R                  
FRANKLIN*      MOSUNNY   73  72  98 SW5       30.05F                  
US460-WAKEFLD  SUNNY     73  70  90 SW5       30.04S                  
$$


SKY/WX - Weather  TMP - Temperature  DP - Dew Point  RH - Humidity
WIND - Wind Direction/Speed PRES - Barometric Pressure VSB - Visibility
WCI - Wind Chill Index E13G22 Wind - East Wind 13 mph/Gusts of 22 mph

Trending Headlines

Fentress Radar Loop



Fentress Quick Facts


National Two Day Weather Forecast


E-mail the Fentress Weather Forecast

Voice your opinion or tell us about page issues...